Bedford, MA

10:23 PM EDT on September 26, 2016 (GMT -0400)
Hanscom

Weather History for KBED - June, 2013

Change the Weather History Date:

Friday, June 28, 2013

  Actual Average Record
Temperature  
Mean Temperature 70 °F -  
Max Temperature 82 °F 80 °F 94 °F (1969)
Min Temperature 59 °F 57 °F 46 °F (1970)
Cooling Degree Days 6    
Growing Degree Days 20 (Base 50)    
Moisture  
Dew Point 66 °F    
Average Humidity 91    
Maximum Humidity 100    
Minimum Humidity 65    
Precipitation  
Precipitation 0.28 in - - ()
Sea Level Pressure  
Sea Level Pressure 29.58 in    
Wind  
Wind Speed 9 mph (SE)    
Max Wind Speed 18 mph    
Max Gust Speed 29 mph    
Visibility 6 miles    
Events Fog , Rain    
Averages and records for this station are not official NWS values.
T = Trace of Precipitation, MM = Missing Value Source: NWS Daily Summary

Daily Weather History Graph

Daily Weather History Graph

Search for Another Location

Airport or City:

Trip Planner

Search our weather history database for the weather conditions in past years. The results will help you decide how hot, cold, wet, or windy it might be!

Date:

Astronomy

Jun. 28, 2013 Rise Set
Actual Time 5:10 AM EDT 8:26 PM EDT
Civil Twilight 4:35 AM EDT 9:01 PM EDT
Nautical Twilight 3:50 AM EDT 9:46 PM EDT
Astronomical Twilight 2:55 AM EDT 10:40 PM EDT
Moon 11:45 PM EDT (6/28) 11:22 AM EDT (6/28)
Length of Visible Light 16h 25m
Length of Day
15h 16m
Waning Gibbous, 66% of the Moon is Illuminated
Jun 28
Waning Gibbous
Jun 30
Last Quarter
Jul 8
New
Jul 15
First Quarter
Jul 22
Full

Hourly Weather History & Observations

Time (EDT) Temp. Heat Index Dew Point Humidity Pressure Visibility Wind Dir Wind Speed Gust Speed Precip Events Conditions
12:56 AM 63.0 °F - 63.0 °F 100% 29.77 in 2.0 mi ENE 9.2 mph - 0.01 in Rain Light Rain
1:04 AM 62.6 °F - 62.6 °F 100% 29.73 in 3.0 mi ENE 6.9 mph - 0.00 in Rain Light Rain
1:56 AM 61.0 °F - 61.0 °F 100% 29.74 in 4.0 mi ENE 11.5 mph - 0.04 in Rain Rain
2:32 AM 59.0 °F - 59.0 °F 100% 29.69 in 5.0 mi ENE 9.2 mph - 0.14 in Rain Light Rain
2:56 AM 59.0 °F - 59.0 °F 100% 29.71 in 4.0 mi ENE 9.2 mph - 0.22 in Rain Light Rain
3:56 AM 60.1 °F - 60.1 °F 100% 29.67 in 10.0 mi ENE 8.1 mph - 0.00 in   Overcast
4:54 AM 60.8 °F - 60.8 °F 100% 29.63 in 7.0 mi East 8.1 mph - 0.01 in   Overcast
4:56 AM 60.1 °F - 60.1 °F 100% 29.67 in 7.0 mi ENE 9.2 mph - 0.01 in   Overcast
5:56 AM 60.1 °F - 60.1 °F 100% 29.65 in 10.0 mi ENE 8.1 mph - N/A   Overcast
6:47 AM 60.8 °F - 60.8 °F 100% 29.60 in 1.0 mi East 5.8 mph - 0.00 in   Light Drizzle
6:56 AM 61.0 °F - 61.0 °F 100% 29.62 in 1.0 mi ENE 5.8 mph - 0.00 in   Light Drizzle
7:26 AM 62.6 °F - 62.6 °F 100% 29.59 in 0.8 mi ENE 3.5 mph - 0.00 in   Light Drizzle
7:29 AM 62.6 °F - 62.6 °F 100% 29.58 in 0.2 mi East 3.5 mph - 0.00 in Fog Light Drizzle
7:56 AM 63.0 °F - 63.0 °F 100% 29.61 in 0.2 mi East 5.8 mph - 0.00 in Fog Light Drizzle
8:07 AM 64.4 °F - 64.4 °F 100% 29.57 in 0.5 mi East 6.9 mph - 0.00 in Fog Light Drizzle
8:31 AM 64.4 °F - 64.4 °F 100% 29.57 in 1.8 mi East 3.5 mph - 0.00 in   Light Drizzle
8:35 AM 64.4 °F - 64.4 °F 100% 29.56 in 3.0 mi East 3.5 mph - 0.00 in   Light Drizzle
8:42 AM 64.4 °F - 64.4 °F 100% 29.56 in 0.8 mi ENE 3.5 mph - 0.00 in   Light Drizzle
8:56 AM 66.0 °F - 66.0 °F 100% 29.59 in 0.8 mi East 3.5 mph - 0.00 in   Light Drizzle
9:03 AM 66.2 °F - 66.2 °F 100% 29.55 in 6.0 mi East 4.6 mph - 0.00 in   Light Drizzle
9:46 AM 69.8 °F - 69.8 °F 100% 29.54 in 6.0 mi SSE 8.1 mph - 0.00 in   Light Drizzle
9:56 AM 71.1 °F - 70.0 °F 96% 29.57 in 3.0 mi SSE 6.9 mph - 0.00 in   Light Drizzle
10:56 AM 73.0 °F - 71.1 °F 93% 29.56 in 5.0 mi South 8.1 mph - 0.00 in   Light Drizzle
11:40 AM 75.2 °F - 71.6 °F 89% 29.53 in 10.0 mi South 9.2 mph - 0.00 in   Light Drizzle
11:56 AM 77.0 °F - 72.0 °F 84% 29.56 in 10.0 mi South 10.4 mph 19.6 mph 0.00 in   Light Drizzle
12:19 PM 78.8 °F - 71.6 °F 78% 29.51 in 10.0 mi SSE 15.0 mph - 0.00 in   Light Drizzle
12:56 PM 79.0 °F - 71.1 °F 77% 29.54 in 10.0 mi South 18.4 mph 25.3 mph 0.00 in   Mostly Cloudy
1:38 PM 80.6 °F 84.6 °F 71.6 °F 74% 29.50 in 10.0 mi South 16.1 mph 23.0 mph N/A   Mostly Cloudy
1:56 PM 80.1 °F 83.6 °F 71.1 °F 74% 29.53 in 10.0 mi South 16.1 mph 26.5 mph N/A   Mostly Cloudy
2:07 PM 78.8 °F - 71.6 °F 78% 29.50 in 10.0 mi South 15.0 mph - N/A   Mostly Cloudy
2:21 PM 80.6 °F 84.6 °F 71.6 °F 74% 29.49 in 10.0 mi SSW 17.3 mph 24.2 mph N/A   Mostly Cloudy
2:56 PM 82.0 °F 85.5 °F 69.1 °F 65% 29.51 in 10.0 mi South 17.3 mph 28.8 mph N/A   Scattered Clouds
3:56 PM 80.1 °F 82.9 °F 69.1 °F 69% 29.51 in 10.0 mi South 15.0 mph - N/A   Mostly Cloudy
4:56 PM 81.0 °F 84.4 °F 70.0 °F 69% 29.52 in 10.0 mi SSW 11.5 mph - N/A   Mostly Cloudy
5:56 PM 79.0 °F - 69.1 °F 72% 29.52 in 10.0 mi SSW 11.5 mph - N/A   Partly Cloudy
6:56 PM 77.0 °F - 69.1 °F 76% 29.53 in 10.0 mi SSW 8.1 mph - N/A   Mostly Cloudy
7:56 PM 73.9 °F - 69.1 °F 85% 29.54 in 10.0 mi South 6.9 mph - N/A   Clear
8:56 PM 72.0 °F - 69.1 °F 91% 29.55 in 10.0 mi South 11.5 mph - N/A   Clear
9:56 PM 71.1 °F - 68.0 °F 90% 29.57 in 9.0 mi South 11.5 mph - N/A   Clear
10:56 PM 70.0 °F - 68.0 °F 93% 29.58 in 9.0 mi South 11.5 mph - N/A   Mostly Cloudy
11:17 PM 69.8 °F - 66.2 °F 88% 29.53 in 10.0 mi South 12.7 mph 18.4 mph N/A   Scattered Clouds
11:45 PM 69.8 °F - 66.2 °F 88% 29.54 in 10.0 mi South 11.5 mph 18.4 mph N/A   Mostly Cloudy
11:56 PM 70.0 °F - 66.9 °F 90% 29.57 in 10.0 mi South 8.1 mph - N/A   Scattered Clouds